www.pogodaiklimat.ru

Погода и климат >> Архив погоды >> Италия >> Матера


ПОГОДА в Матере

  • Прогноз погоды в Матере
  • Монитор погоды в Матере

АРХИВ ПОГОДЫ в Матере

Время (UTC), дата Ветер
(напр.,м/с)
 
Видим.   Явления Облачность Т
(С)
Тd
(С)
f
(%)
Тe
(С)
Тes
(С)
Комфортность P
(гПа)
Po
(гПа)
Тmin
(С)
Tmax
(С)
R
(мм)
R24
(мм)
S
(см)
19 9.06 штиль 0 н/о н/о +25.1 +12.9 47 +27 +27 жарко 1019.1 962.9
20 9.06 штиль 0 н/о н/о +24.2 +13.3 51 +26 +26 жарко 1019.4 963.0
21 9.06 штиль 0 н/о н/о +23.3 +12.6 51 +26 +26 жарко 1019.3 962.8
22 9.06 штиль 0 н/о н/о +22.6 +12.8 54 +25 +25 комфорт 1019.2 962.5
23 9.06 штиль 0 н/о н/о +21.8 +12.3 55 +24 +24 комфорт 1018.9 962.1
00 10.06 штиль 0 н/о н/о +21.9 +12.4 55 +24 +24 комфорт 1018.4 961.7
01 10.06 штиль 0 н/о н/о +22.5 +12.4 53 +25 +25 комфорт 1017.8 961.2
02 10.06 штиль 0 н/о н/о +23.2 +11.5 48 +26 +26 жарко 1017.3 960.8
03 10.06 штиль 0 н/о н/о +22.6 +12.5 53 +25 +25 комфорт 1016.9 960.4
04 10.06 штиль 0 н/о н/о +21.7 +12.5 56 +24 +24 комфорт 1017.2 960.5
05 10.06 штиль 0 н/о н/о +22.4 +14.2 60 +26 +26 жарко 1017.2 960.6
06 10.06 штиль 0 н/о н/о +24.0 +13.7 53 +26 +26 жарко 1016.8 960.6 +21.1 0
07 10.06 штиль 0 н/о н/о +26.0 +14.7 50 +29 +29 душно 1016.4 960.6
08 10.06 штиль 0 н/о н/о +27.9 +15.2 46 +31 +31 душно 1015.7 960.2
09 10.06 штиль 0 н/о н/о +29.0 +15.1 43 +32 +32 душно 1015.2 960.0
10 10.06 штиль 0 н/о н/о +30.1 +14.6 39 +32 +32 жарко 1014.6 959.6
11 10.06 штиль 0 н/о н/о +31.4 +14.1 35 +33 +33 жарко 1013.9 959.1
12 10.06 штиль 0 н/о н/о +31.6 +15.1 37 +34 +34 душно 1013.3 958.6
13 10.06 штиль 0 н/о н/о +31.3 +15.7 39 +34 +34 душно 1012.9 958.2
14 10.06 штиль 0 н/о н/о +30.9 +14.9 38 +33 +33 душно 1012.7 957.9
15 10.06 штиль 0 н/о н/о +30.0 +14.5 39 +32 +32 жарко 1012.3 957.4
16 10.06 штиль 0 н/о н/о +29.4 +13.6 38 +31 +31 жарко 1012.3 957.3
17 10.06 штиль 0 н/о н/о +26.8 +14.8 48 +29 +29 жарко 1012.6 957.1
18 10.06 штиль 0 н/о н/о +26.9 +14.2 46 +29 +29 жарко 1012.8 957.3 +31.9
19 10.06 штиль 0 н/о н/о +26.2 +14.3 48 +29 +29 жарко 1013.0 957.3
20 10.06 штиль 0 н/о н/о +25.4 +14.1 50 +28 +28 жарко 1013.1 957.2
21 10.06 штиль 0 н/о н/о +24.8 +13.9 51 +27 +27 жарко 1013.2 957.3
22 10.06 штиль 0 н/о н/о +23.9 +15.3 59 +27 +27 жарко 1013.5 957.4
23 10.06 штиль 0 н/о н/о +23.8 +14.1 55 +26 +26 жарко 1013.2 957.1
00 11.06 штиль 0 н/о н/о +23.4 +14.9 59 +27 +27 душно 1013.0 956.8
01 11.06 штиль 0 н/о н/о +21.4 +14.9 66 +24 +24 комфорт 1012.8 956.4
02 11.06 З 3 н/о н/о +20.9 +15.1 69 +24 +24 комфорт 1012.3 955.7
03 11.06 ЮЗ 4 н/о н/о +21.0 +15.7 72 +25 +25 комфорт 1012.2 955.6
04 11.06 ЮЗ 4 н/о н/о +20.3 +16.3 78 +23 +23 комфорт 1012.5 955.8
05 11.06 ЮЗ 3 н/о н/о +21.7 +16.6 73 +26 +26 душно 1012.0 955.6
06 11.06 штиль 0 н/о н/о +23.4 +16.6 66 +28 +28 душно 1011.9 955.8 +20.2 601
07 11.06 штиль 0 н/о н/о +24.6 +16.2 60 +28 +28 душно 1012.0 956.2
08 11.06 штиль 0 н/о н/о +26.0 +16.8 57 +30 +30 душно 1012.0 956.4
09 11.06 штиль 0 н/о н/о +27.9 +16.5 50 +31 +31 душно 1011.8 956.6
10 11.06 штиль 0 н/о н/о +29.2 +16.3 46 +33 +33 очень
душно
1011.6 956.6
11 11.06 штиль 0 н/о н/о +30.1 +17.2 46 +34 +34 очень
душно
1011.4 956.6
12 11.06 штиль 0 н/о н/о +30.3 +17.0 45 +34 +34 очень
душно
1011.1 956.2
13 11.06 штиль 0 н/о н/о +30.1 +16.5 44 +33 +33 душно 1011.1 956.3
14 11.06 штиль 0 н/о н/о +30.0 +17.4 47 +34 +34 очень
душно
1011.3 956.3
15 11.06 штиль 0 н/о н/о +29.5 +17.6 49 +34 +34 очень
душно
1011.3 956.3
16 11.06 штиль 0 н/о н/о +28.9 +17.7 51 +33 +33 очень
душно
1010.9 955.8
17 11.06 штиль 0 н/о н/о +27.5 +18.2 57 +32 +32 очень
душно
1011.5 956.1
18 11.06 штиль 0 н/о н/о +25.5 +17.6 62 +30 +30 душно 1012.3 956.6 +30.9
19 11.06 штиль 0 н/о н/о +25.6 +15.5 54 +29 +29 душно 1012.4 956.7
20 11.06 штиль 0 н/о н/о +24.8 +14.8 54 +28 +28 жарко 1013.3 957.4
21 11.06 штиль 0 н/о н/о +25.0 +14.7 53 +28 +28 жарко 1012.8 957.0
22 11.06 штиль 0 н/о н/о +22.4 +14.4 61 +26 +26 жарко 1013.8 957.5
23 11.06 штиль 0 н/о н/о +22.3 +14.3 61 +26 +26 жарко 1013.5 957.1
00 12.06 ЮЗ 2 н/о н/о +21.9 +15.4 67 +26 +26 душно 1013.4 956.9
01 12.06 З 2 н/о н/о +20.9 +15.1 69 +25 +25 комфорт 1013.4 956.7
02 12.06 штиль 0 н/о н/о +21.9 +16.1 70 +26 +26 душно 1012.6 956.2
03 12.06 штиль 0 н/о н/о +21.2 +15.7 71 +24 +24 комфорт 1012.9 956.4
04 12.06 ЮЗ 5 н/о н/о +20.2 +18.3 89 +24 +24 комфорт 1013.2 956.5
05 12.06 штиль 0 н/о н/о +21.1 +19.2 89 +26 +26 душно 1013.1 956.5
06 12.06 штиль 0 н/о н/о +23.2 +18.9 77 +29 +29 душно 1012.8 956.7 +20.1 0
07 12.06 ЮЗ 3 н/о н/о +25.0 +19.8 73 +31 +31 очень
душно
1012.8 956.9
08 12.06 штиль 0 н/о н/о +25.6 +18.5 65 +30 +30 душно 1013.3 957.5
09 12.06 штиль 0 н/о н/о +27.1 +17.2 55 +31 +31 душно 1013.4 958.0
10 12.06 штиль 0 н/о н/о +28.6 +18.3 54 +33 +33 очень
душно
1013.0 957.8
11 12.06 штиль 0 н/о н/о +27.0 +19.0 62 +32 +32 очень
душно
1014.1 958.5
12 12.06 штиль 0 н/о н/о +26.5 +17.2 57 +31 +31 душно 1014.1 958.4
13 12.06 штиль 0 н/о н/о +27.1 +19.1 62 +33 +33 очень
душно
1013.7 958.3
14 12.06 штиль 0 н/о н/о +27.4 +18.1 57 +32 +32 очень
душно
1013.5 958.1
15 12.06 ЮЗ 5 н/о н/о +27.4 +17.8 56 +32 +32 очень
душно
1013.7 958.2
16 12.06 Ю 6 н/о н/о +26.7 +17.1 56 +31 +31 душно 1013.2 957.7
17 12.06 Ю 4 н/о н/о +25.5 +18.1 64 +30 +30 душно 1013.4 957.6
18 12.06 ЮЗ 4 н/о н/о +23.7 +20.0 80 +29 +29 душно 1014.2 958.0 +29.0
19 12.06 Ю 3 н/о н/о +22.7 +18.2 76 +28 +28 душно 1014.3 958.0
20 12.06 ЮЗ 4 н/о н/о +22.5 +15.3 64 +26 +26 жарко 1015.0 958.5
21 12.06 ЮЗ 4 н/о н/о +21.3 +18.8 86 +26 +26 душно 1015.2 958.5
22 12.06 ЮЗ 4 н/о н/о +20.7 +19.3 92 +25 +25 комфорт 1015.3 958.5
23 12.06 ЮЗ 3 н/о н/о +19.8 +19.7 99 +23 +23 комфорт 1015.3 958.4
00 13.06 штиль 0 н/о н/о +20.1 +20.0 99 +24 +24 комфорт 1014.9 958.0
01 13.06 штиль 0 н/о н/о +20.1 +19.0 93 +23 +23 комфорт 1014.5 957.7
02 13.06 штиль 0 н/о н/о +20.2 +19.3 95 +24 +24 комфорт 1014.5 957.6
03 13.06 ЮЗ 3 н/о н/о +20.2 +17.7 86 +24 +24 комфорт 1014.5 957.7
04 13.06 СВ 3 н/о н/о +18.6 +17.6 94 +20 +20 1015.3 958.1
05 13.06 С 2 н/о н/о +23.9 +14.5 56 +27 +27 жарко 1014.4 958.3
06 13.06 СВ 2 н/о н/о +24.3 +17.5 66 +28 +28 душно 1014.7 958.7 +17.9 404
07 13.06 СВ 3 н/о н/о +27.9 +14.8 45 +30 +30 жарко 1014.5 959.1
08 13.06 СВ 3 н/о н/о +28.9 +16.4 47 +32 +32 душно 1014.6 959.4
09 13.06 З 2 н/о н/о +29.2 +20.0 58 +36 +36 очень
душно
1015.1 959.9
10 13.06 З 3 н/о н/о +30.3 +19.9 54 +37 +37 очень
душно
1015.1 960.1
11 13.06 ЮВ 3 н/о н/о +31.5 +15.4 38 +34 +34 душно 1015.0 960.2
12 13.06 В 4 н/о н/о +31.3 +15.3 38 +34 +34 душно 1015.1 960.2
13 13.06 В 7 н/о н/о +31.4 +16.2 40 +34 +34 душно 1015.1 960.3
14 13.06 В 1 н/о н/о +30.7 +16.7 43 +34 +34 очень
душно
1015.5 960.5
15 13.06 В 6 н/о н/о +29.6 +18.0 50 +34 +34 очень
душно
1016.0 960.8
16 13.06 В 6 н/о н/о +28.0 +18.4 56 +33 +33 очень
душно
1016.4 960.9
17 13.06 В 8 н/о н/о +26.7 +17.1 56 +31 +31 душно 1017.0 961.2
18 13.06 В 5 н/о н/о +25.0 +17.4 63 +29 +29 душно 1017.8 961.6 +32.3
19 13.06 СВ 4 н/о н/о +23.6 +16.8 66 +27 +27 жарко 1018.4 962.0
20 13.06 С 4 н/о н/о +21.7 +17.2 76 +26 +26 душно 1019.3 962.5
21 13.06 СВ 4 н/о н/о +21.2 +16.3 74 +25 +25 комфорт 1019.4 962.6
22 13.06 С 4 н/о н/о +20.9 +16.0 74 +24 +24 комфорт 1019.8 962.8
23 13.06 С 6 н/о н/о +20.6 +15.7 73 +23 +23 комфорт 1019.5 962.5
00 14.06 С 6 н/о н/о +21.2 +15.4 69 +24 +24 комфорт 1019.2 962.3
01 14.06 С 5 н/о н/о +20.0 +14.9 72 +22 +22 комфорт 1018.9 961.8
02 14.06 С 6 н/о н/о +19.5 +15.1 76 +21 +21 комфорт 1018.7 961.5
03 14.06 СВ 5 н/о н/о +18.1 +14.7 81 +18 +18 1019.0 961.5
04 14.06 С 6 н/о н/о +18.8 +14.8 78 +19 +19 1019.3 962.0
05 14.06 С 7 н/о н/о +20.9 +15.6 72 +24 +24 комфорт 1019.0 962.1
06 14.06 СВ 7 н/о н/о +22.9 +15.9 65 +27 +27 душно 1019.0 962.5 +17.9 311
07 14.06 СВ 7 н/о н/о +25.4 +14.8 52 +28 +28 жарко 1018.7 962.7
08 14.06 СВ 6 н/о н/о +27.7 +13.2 41 +29 +29 жарко 1018.7 963.0
09 14.06 СВ 7 н/о н/о +29.1 +12.1 35 +30 +30 жарко 1018.9 963.5
10 14.06 СВ 7 н/о н/о +30.3 +12.7 34 +31 +31 жарко 1018.8 963.6
11 14.06 СВ 8 н/о н/о +30.9 +12.8 33 +32 +32 жарко 1018.5 963.4
12 14.06 В 5 н/о н/о +31.1 +12.0 31 +32 +32 жарко 1017.9 962.9
13 14.06 СВ 6 н/о н/о +31.3 +11.2 29 +31 +31 жарко 1017.8 962.8
14 14.06 В 7 н/о н/о +31.5 +11.9 30 +32 +32 жарко 1017.5 962.6
15 14.06 В 6 н/о н/о +31.4 +11.3 29 +32 +32 жарко 1017.3 962.3
16 14.06 СВ 5 н/о н/о +31.1 +11.0 29 +31 +31 жарко 1017.1 962.1
17 14.06 СВ 3 н/о н/о +30.9 +10.8 29 +31 +31 жарко 1016.8 961.8
18 14.06 СВ 4 н/о н/о +28.4 +10.6 33 +29 +29 жарко 1017.2 961.7 +32.1
19 14.06 С 4 н/о н/о +26.5 +9.3 34 +27 +27 жарко 1017.5 961.7
20 14.06 С 5 н/о н/о +25.5 +9.3 36 +26 +26 жарко 1018.5 962.4
21 14.06 С 3 н/о н/о +25.0 +10.1 39 +26 +26 жарко 1018.6 962.4
22 14.06 С 4 н/о н/о +24.7 +10.5 41 +26 +26 жарко 1018.3 962.1
23 14.06 С 5 н/о н/о +24.8 +9.5 38 +26 +26 жарко 1017.8 961.6
00 15.06 СВ 5 н/о н/о +25.0 +8.9 36 +26 +26 жарко 1016.9 960.8
01 15.06 С 6 н/о н/о +24.4 +8.7 37 +25 +25 комфорт 1016.6 960.5
02 15.06 С 5 н/о н/о +23.7 +10.0 42 +25 +25 комфорт 1016.3 960.0
03 15.06 С 4 н/о н/о +24.8 +10.6 41 +26 +26 жарко 1015.9 959.8
04 15.06 С 3 н/о н/о +24.9 +10.3 40 +26 +26 жарко 1016.1 960.0
05 15.06 С 3 н/о н/о +26.6 +10.7 37 +27 +27 жарко 1015.5 959.8
06 15.06 СВ 3 н/о н/о +28.4 +11.9 36 +29 +29 жарко 1015.6 960.2 +23.2 305
07 15.06 С 3 н/о н/о +28.1 +12.4 38 +29 +29 жарко 1015.5 960.1
08 15.06 СВ 3 н/о н/о +32.0 +10.2 26 +32 +32 жарко 1014.8 960.1
09 15.06 С 4 н/о н/о +33.5 +10.3 24 +33 +33 жарко 1014.5 960.1
10 15.06 СВ 3 н/о н/о +33.9 +8.6 21 +32 +32 жарко 1014.4 960.0
11 15.06 СВ 2 н/о н/о +34.2 +12.6 27 +34 +34 очень
жарко
1014.0 959.7
12 15.06 СВ 4 н/о н/о +34.8 +14.7 30 +36 +36 душно 1013.6 959.4
13 15.06 С 6 н/о н/о +35.4 +13.0 26 +36 +36 очень
жарко
1013.1 959.1
14 15.06 С 6 н/о н/о +35.7 +12.1 24 +35 +35 очень
жарко
1012.8 958.8
15 15.06 В 6 н/о н/о +34.0 +14.0 30 +35 +35 очень
жарко
1012.7 958.4
16 15.06 В 3 н/о н/о +33.3 +13.4 30 +34 +34 очень
жарко
1012.5 958.1
17 15.06 штиль 0 н/о н/о +33.0 +13.1 30 +34 +34 очень
жарко
1012.4 958.0
18 15.06 штиль 0 н/о н/о +31.4 +12.8 32 +32 +32 жарко 1012.8 958.1 +36.2
19 15.06 З 3 н/о н/о +27.7 +12.8 40 +29 +29 жарко 1013.5 958.1
20 15.06 С 4 н/о н/о +28.4 +14.9 44 +31 +31 душно 1013.8 958.5
21 15.06 СВ 3 н/о н/о +26.7 +13.0 43 +28 +28 жарко 1014.2 958.6
22 15.06 С 4 н/о н/о +25.5 +13.0 46 +27 +27 жарко 1014.3 958.4
23 15.06 С 4 н/о н/о +24.2 +13.3 51 +26 +26 жарко 1014.4 958.3
00 16.06 С 5 н/о н/о +23.4 +15.1 60 +28 +28 душно 1014.4 958.2
01 16.06 С 5 н/о н/о +24.0 +13.5 52 +26 +26 жарко 1014.2 958.1
02 16.06 С 5 н/о н/о +22.9 +12.8 53 +26 +26 жарко 1014.2 957.9
03 16.06 С 6 н/о н/о +22.8 +13.5 56 +26 +26 жарко 1013.9 957.6
04 16.06 С 6 н/о н/о +23.2 +13.6 55 +27 +27 душно 1013.8 957.5
05 16.06 С 5 н/о н/о +22.4 +13.6 57 +25 +25 комфорт 1014.2 957.8
06 16.06 С 8 н/о н/о +24.3 +14.0 53 +27 +27 жарко 1014.0 958.0 +22.0 116
07 16.06 С 8 н/о н/о +26.8 +14.8 48 +29 +29 жарко 1013.8 958.3
08 16.06 СВ 6 н/о н/о +28.6 +13.2 39 +30 +30 жарко 1013.9 958.7
09 16.06 СВ 6 н/о н/о +29.4 +15.1 42 +32 +32 душно 1014.2 959.1
10 16.06 СВ 5 н/о н/о +29.9 +15.9 43 +33 +33 душно 1014.3 959.2
11 16.06 СВ 2 н/о н/о +30.9 +15.7 40 +34 +34 душно 1014.0 959.1
12 16.06 В 3 н/о н/о +31.7 +14.8 36 +34 +34 душно 1013.2 958.6
13 16.06 В 3 н/о н/о +31.7 +13.4 33 +33 +33 жарко 1012.6 957.9
14 16.06 СВ 1 н/о н/о +32.1 +15.6 37 +35 +35 очень
душно
1012.1 957.6
15 16.06 В 2 н/о н/о +31.7 +15.6 38 +34 +34 душно 1011.7 957.1
16 16.06 В 3 н/о н/о +30.2 +16.9 45 +34 +34 очень
душно
1012.3 957.3
17 16.06 В 7 н/о н/о +28.1 +16.0 48 +31 +31 душно 1013.3 958.0

 

Местоположение метеостанции Матера (Италия): широта 40.67 долгота 16.66 высота над уровнем моря 498 м.

В архиве по умолчанию представлена погода в Матере за последнюю неделю. Архивные данные за месяц целиком и за предыдущие месяцы, начиная с января 2011 года, Вы можете получить, выбрав интересующий диапазон дат из раскрывающегося списка и нажав кнопку "Ввод!".


*Определитесь, кто Вы:
робот инопланетянин человек

Внимание! Время в таблицах - всемирное. Для получения местного времени необходимо прибавить поправку, которая равна 1 ч.

Смотрите также архив погоды в соседних городах и на ближайших метеорологических станциях:

Погода в Джоя-дель-Колле (Италия) (25 км)
Погода в Джинозе (Италия) (33 км)
Погода в Мартина-Франка (Италия) (47 км)
Погода в Бари аэропорту (Италия) (52 км)
Погода в Бари (Италия) (53 км)
Погода в Латронико (Италия) (85 км)
Погода в Бриндиси (Италия) (109 км)
Погода в Амендоле (Италия) (124 км)
Погода в Тревико (Италия) (128 км)
Погода в Монте-Сант-Анджело (Италия) (129 км)

Пояснения к столбцам:

Ветер - указаны скорость ветра в м/с - средняя за 10 мин, порывы в срок и между сроками (в фигурных скобках) и направление, откуда дует ветер: С - северный, СВ - северо-восточный, В - восточный, ЮВ - юго-восточный, Ю - южный, ЮЗ - юго-западный, З - западный, СЗ - северо-западный.
Видимость - горизонтальная дальность видимости в метрах или километрах. При видимости от 1 до 10 км при отсутствии осадков обычно наблюдается дымка, при ухудшении видимости до 1 км и менее - туман. В сухую погоду видимость может ухудшаться дымом, пылью или мглою.
Явления - указаны атмосферные явления, наблюдавшиеся в срок или в последний час перед сроком; фигурными скобками обозначены явления, наблюдавшиеся между сроками (за 1-3 часа до срока); квадратными скобками обозначены град или гололедные отложения с указанием их диаметра в мм.
Облачность - указаны через наклонную черту общая и нижняя облачность в баллах и высота нижней границы облаков в метрах; квадратными скобками обозначены формы облаков: Ci - перистые, Cs - перисто-слоистые, Cc - перисто-кучевые, Ac - высококучевые, As - высокослоистые, Sc - слоисто-кучевые, Ns - слоисто-дождевые, Cu - кучевые, Cb - кучево-дождевые. Подробнее классификацию облаков см. в Атласе облаков (PDF).
T - Температура воздуха - температура, измеренная на высоте 2 м над землей.
Td - Температура точки росы - температура, при понижении до которой содержащийся в воздухе водяной пар достигнет насыщения.
f - Относительная влажность воздуха - влажноcть воздуха, измеренная на высоте 2 м над землей.
Te - Эффективная температура - температура, которую ощущает одетый по сезону человек в тени. Характеристика душности погоды. При расчете учитывается влияние влажности воздуха и скорости ветра на теплоощущения человека.
Tes - Эффективная температура на солнце - температура, которую ощущает человек, с поправкой на солнечный нагрев. Характеристика знойности погоды. Зависит от высоты солнца над горизонтом, облачности и скорости ветра. Ночью, в пасмурную погоду, а также при ветре 12 м/с и более поправка равна нулю.
P - Атмосферное давление - приведенное к уровню моря атмосферное давление.
Po - Атмосферное давление - измеренное на уровне метеостанции атмосферное давление.
Tmin - Минимальная температура - минимум температуры воздуха на высоте 2 м над землей.
Tmax - Максимальная температура - максимум температуры воздуха на высоте 2 м над землей.
R - Количество осадков - Количество выпавших осадков за период времени, мм. При наведении курсора мыши на число - период времени, за который выпало указанное количество осадков.
R24 - Количество осадков - Количество выпавших осадков за 24 часа, мм.
S - Снежный покров - Высота снежного покрова, см. При наведении курсора мыши на число - состояние снежного покрова и степень покрытия местности в баллах.